Haleyville, AL

4:05 PM CST on December 14, 2017 (GMT -0600)
Haleyville

Weather History for K1M4 - April, 2014

Change the Weather History Date:

Tuesday, April 22, 2014

  Actual Average (KJFX) Record (KJFX)
Temperature  
Mean Temperature 66 °F -  
Max Temperature 72 °F 74 °F 87 °F (1963)
Min Temperature 56 °F 49 °F 32 °F (1978)
Growing Degree Days 16 (Base 50)    
Moisture  
Dew Point 61 °F    
Average Humidity 92    
Maximum Humidity 100    
Minimum Humidity 64    
Precipitation  
Precipitation 0.11 in - - ()
Sea Level Pressure  
Sea Level Pressure 29.97 in    
Wind  
Wind Speed 3 mph (West)    
Max Wind Speed 9 mph    
Max Gust Speed -    
Visibility 6 miles    
Events Fog , Rain    
Averages and records for this station are not official NWS values.
T = Trace of Precipitation, MM = Missing Value Source: NWS Daily Summary

Daily Weather History Graph

Daily Weather History Graph

Search for Another Location

Airport or City:

Trip Planner

Search our weather history database for the weather conditions in past years. The results will help you decide how hot, cold, wet, or windy it might be!

Date:

Astronomy

Apr. 22, 2014 Rise Set
Actual Time 6:10 AM CDT 7:27 PM CDT
Civil Twilight 5:44 AM CDT 7:53 PM CDT
Nautical Twilight 5:13 AM CDT 8:25 PM CDT
Astronomical Twilight 4:40 AM CDT 8:57 PM CDT
Moon 1:40 AM CDT (4/22) 12:46 PM CDT (4/22)
Length of Visible Light 14h 09m
Length of Day
13h 16m
Last Quarter, 46% of the Moon is Illuminated
Apr 22
Last Quarter
Apr 29
New
May 6
First Quarter
May 14
Full
May 21
Last Quarter

Hourly Weather History & Observations

Time (CDT) Temp. Dew Point Humidity Pressure Visibility Wind Dir Wind Speed Gust Speed Precip Events Conditions
12:56 AM 65.8 °F 55.9 °F 70% 30.01 in 10.0 mi SSW 5.8 mph - N/A   Scattered Clouds
1:56 AM 63.0 °F 57.9 °F 84% 30.00 in 10.0 mi Calm Calm - 0.00 in   Mostly Cloudy
2:56 AM 61.0 °F 57.9 °F 90% 29.99 in 10.0 mi Calm Calm - N/A   Mostly Cloudy
3:56 AM 61.9 °F 59.0 °F 90% 29.99 in 2.5 mi NNW 4.6 mph - 0.02 in Rain Heavy Rain
4:04 AM 60.8 °F 60.8 °F 100% 29.94 in 6.0 mi North 3.5 mph - 0.00 in Rain Light Rain
4:56 AM 59.9 °F 59.9 °F 100% 29.98 in 5.0 mi South 3.5 mph - 0.00 in Rain Light Rain
5:24 AM 60.8 °F 60.8 °F 100% 29.95 in 4.0 mi Calm Calm - 0.00 in Rain Light Rain
5:33 AM 60.8 °F 60.8 °F 100% 29.95 in 2.5 mi Calm Calm - 0.00 in Rain Light Rain
5:48 AM 60.8 °F 60.8 °F 100% 29.95 in 3.0 mi NNW 3.5 mph - 0.02 in Rain Rain
5:56 AM 59.9 °F 59.9 °F 100% 29.99 in 2.5 mi Calm Calm - 0.03 in Rain Heavy Rain
6:08 AM 60.8 °F 60.8 °F 100% 29.95 in 3.0 mi Calm Calm - 0.00 in Rain Light Rain
6:16 AM 60.8 °F 60.8 °F 100% 29.95 in 2.0 mi Calm Calm - 0.01 in Rain Light Rain
6:27 AM 60.8 °F 60.8 °F 100% 29.95 in 1.2 mi Calm Calm - 0.01 in Rain Rain
6:29 AM 60.8 °F 60.8 °F 100% 29.95 in 0.8 mi Calm Calm - 0.01 in Rain Rain
6:37 AM 60.8 °F 60.8 °F 100% 29.95 in 0.5 mi Calm Calm - 0.01 in Fog , Rain Light Rain
6:41 AM 60.8 °F 60.8 °F 100% 29.96 in 0.8 mi Calm Calm - 0.01 in Rain Light Rain
6:46 AM 60.8 °F 60.8 °F 100% 29.96 in 1.2 mi Calm Calm - 0.01 in Rain Light Rain
6:56 AM 59.9 °F 59.9 °F 100% 29.99 in 1.2 mi Calm Calm - 0.01 in Rain Light Rain
7:11 AM 60.8 °F 60.8 °F 100% 29.96 in 2.0 mi SW 3.5 mph - 0.00 in Rain Light Rain
7:31 AM 60.8 °F 60.8 °F 100% 29.96 in 1.8 mi SW 3.5 mph - 0.00 in Rain Light Rain
7:48 AM 60.8 °F 60.8 °F 100% 29.96 in 2.0 mi Calm Calm - 0.01 in Rain Light Rain
7:56 AM 59.9 °F 59.9 °F 100% 30.00 in 2.0 mi Calm Calm - 0.01 in Rain Light Rain
8:03 AM 60.8 °F 60.8 °F 100% 29.96 in 1.5 mi Calm Calm - 0.00 in Rain Light Rain
8:17 AM 60.8 °F 60.8 °F 100% 29.96 in 2.5 mi Calm Calm - 0.00 in Rain Light Rain
8:24 AM 60.8 °F 60.8 °F 100% 29.96 in 6.0 mi Calm Calm - 0.00 in Rain Light Rain
8:56 AM 61.9 °F 61.9 °F 100% 30.00 in 6.0 mi Calm Calm - 0.00 in   Mostly Cloudy
9:45 AM 62.6 °F 62.6 °F 100% 29.97 in 7.0 mi SW 3.5 mph - N/A   Overcast
9:56 AM 61.9 °F 61.0 °F 97% 30.00 in 6.0 mi Calm Calm - N/A   Overcast
10:22 AM 62.6 °F 60.8 °F 94% 29.97 in 1.8 mi WSW 3.5 mph - 0.01 in Rain Heavy Rain
10:42 AM 62.6 °F 62.6 °F 100% 29.97 in 1.2 mi SW 4.6 mph - 0.02 in Rain Light Rain
10:44 AM 62.6 °F 62.6 °F 100% 29.97 in 1.5 mi WSW 4.6 mph - 0.02 in Rain Light Rain
10:56 AM 61.9 °F 61.9 °F 100% 30.01 in 1.2 mi SW 3.5 mph - 0.02 in Rain Rain
11:01 AM 62.6 °F 62.6 °F 100% 29.97 in 1.0 mi WSW 4.6 mph - 0.02 in Rain Heavy Rain
11:04 AM 62.6 °F 62.6 °F 100% 29.97 in 0.8 mi WSW 3.5 mph - 0.02 in Rain Heavy Rain
11:14 AM 62.6 °F 62.6 °F 100% 29.97 in 1.2 mi West 4.6 mph - 0.02 in Rain Rain
11:18 AM 62.6 °F 62.6 °F 100% 29.97 in 2.0 mi West 3.5 mph - 0.02 in Rain Rain
11:20 AM 62.6 °F 62.6 °F 100% 29.97 in 3.0 mi Variable 3.5 mph - 0.02 in Rain Light Rain
11:40 AM 64.4 °F 62.6 °F 94% 29.97 in 9.0 mi Variable 4.6 mph - 0.02 in   Overcast
11:47 AM 64.4 °F 62.6 °F 94% 29.96 in 9.0 mi Variable 5.8 mph - 0.02 in   Overcast
11:56 AM 64.9 °F 63.0 °F 93% 30.00 in 10.0 mi West 5.8 mph - 0.02 in   Overcast
12:11 PM 66.2 °F 62.6 °F 88% 29.96 in 10.0 mi WSW 6.9 mph - N/A   Overcast
12:31 PM 66.2 °F 60.8 °F 83% 29.95 in 10.0 mi West 6.9 mph - N/A   Overcast
12:56 PM 66.9 °F 61.9 °F 84% 29.99 in 10.0 mi Variable 4.6 mph - N/A   Mostly Cloudy
1:43 PM 69.8 °F 62.6 °F 78% 29.94 in 10.0 mi Variable 5.8 mph - N/A   Mostly Cloudy
1:56 PM 70.9 °F 61.9 °F 73% 29.97 in 10.0 mi Variable 5.8 mph - N/A   Mostly Cloudy
2:17 PM 69.8 °F 60.8 °F 73% 29.93 in 10.0 mi West 5.8 mph - N/A   Mostly Cloudy
2:56 PM 70.9 °F 59.9 °F 68% 29.96 in 10.0 mi Variable 4.6 mph - N/A   Mostly Cloudy
3:27 PM 71.6 °F 60.8 °F 69% 29.91 in 10.0 mi WNW 9.2 mph - N/A   Mostly Cloudy
3:34 PM 71.6 °F 60.8 °F 69% 29.91 in 10.0 mi WNW 8.1 mph - N/A   Scattered Clouds
3:56 PM 72.0 °F 59.9 °F 66% 29.94 in 10.0 mi West 8.1 mph - N/A   Partly Cloudy
4:56 PM 72.9 °F 59.9 °F 64% 29.94 in 10.0 mi NW 6.9 mph - N/A   Scattered Clouds
5:56 PM 72.0 °F 61.0 °F 68% 29.93 in 10.0 mi North 5.8 mph - N/A   Clear
6:56 PM 70.9 °F 61.0 °F 71% 29.93 in 10.0 mi Calm Calm - N/A   Clear
7:56 PM 63.9 °F 61.9 °F 93% 29.95 in 10.0 mi Calm Calm - N/A   Clear
8:56 PM 61.0 °F 61.0 °F 100% 29.97 in 8.0 mi Calm Calm - N/A   Clear
9:56 PM 59.9 °F 59.0 °F 97% 29.99 in 10.0 mi Calm Calm - N/A   Clear
10:56 PM 59.0 °F 55.9 °F 90% 29.99 in 10.0 mi Calm Calm - N/A   Clear
11:56 PM 56.8 °F 54.9 °F 93% 29.99 in 10.0 mi North 3.5 mph - N/A   Clear